�������l�o���
Date,Time,MP-1(��Sv/h),MP-2(��Sv/h),MP-3(��Sv/h),MP-4(��Sv/h),MP-5(��Sv/h),MP-6(��Sv/h),MP-7(��Sv/h),MP-8(��Sv/h),����,����(m/s),���J
2020/09/22,00:00,0.667,0.951,0.609,1.172,0.845,0.386,0.671,0.632,�k�k��,2.2,��
2020/09/22,00:10,0.668,0.951,0.609,1.174,0.843,0.386,0.672,0.633,�k�k��,1.7,��
2020/09/22,00:20,0.668,0.950,0.607,1.171,0.843,0.386,0.671,0.632,�k�k��,2.0,��
2020/09/22,00:30,0.668,0.949,0.609,1.171,0.845,0.385,0.673,0.631,�k��,2.3,��
2020/09/22,00:40,0.670,0.951,0.607,1.173,0.844,0.385,0.672,0.632,�k��,2.2,��
2020/09/22,00:50,0.668,0.952,0.607,1.171,0.841,0.386,0.673,0.633,�k�k��,2.5,��
2020/09/22,01:00,0.669,0.950,0.608,1.172,0.845,0.384,0.673,0.631,�k��,2.5,��
2020/09/22,01:10,0.670,0.948,0.608,1.173,0.843,0.385,0.671,0.631,�k��,2.3,��
2020/09/22,01:20,0.668,0.947,0.608,1.169,0.844,0.384,0.672,0.634,�k��,1.9,��
2020/09/22,01:30,0.666,0.949,0.610,1.174,0.843,0.385,0.671,0.633,�k��,1.9,��
2020/09/22,01:40,0.668,0.951,0.608,1.170,0.842,0.385,0.671,0.631,�k�k��,2.2,��
2020/09/22,01:50,0.667,0.950,0.610,1.173,0.841,0.385,0.671,0.633,�k�k��,3.7,��
2020/09/22,02:00,0.669,0.950,0.608,1.172,0.841,0.386,0.673,0.632,�k�k��,3.8,��
2020/09/22,02:10,0.669,0.950,0.609,1.171,0.843,0.386,0.673,0.632,�k�k��,4.8,��
2020/09/22,02:20,0.669,0.952,0.607,1.171,0.841,0.386,0.671,0.634,�k�k��,4.3,��
2020/09/22,02:30,0.668,0.950,0.609,1.172,0.841,0.385,0.671,0.631,�k�k��,5.4,��
2020/09/22,02:40,0.670,0.951,0.609,1.171,0.843,0.386,0.673,0.632,�k�k��,4.6,��
2020/09/22,02:50,0.668,0.949,0.607,1.172,0.844,0.385,0.672,0.630,�k�k��,4.8,��
2020/09/22,03:00,0.669,0.950,0.607,1.173,0.844,0.385,0.671,0.631,�k�k��,4.9,��
2020/09/22,03:10,0.669,0.950,0.607,1.172,0.844,0.386,0.673,0.632,�k�k��,4.6,��
2020/09/22,03:20,0.668,0.951,0.607,1.172,0.843,0.386,0.671,0.632,�k�k��,4.6,��
2020/09/22,03:30,0.669,0.949,0.608,1.170,0.844,0.385,0.670,0.631,�k�k��,5.2,��
2020/09/22,03:40,0.667,0.949,0.608,1.171,0.843,0.387,0.672,0.632,�k�k��,5.5,��
2020/09/22,03:50,0.668,0.951,0.608,1.174,0.842,0.385,0.672,0.631,�k�k��,6.2,��
2020/09/22,04:00,0.668,0.948,0.607,1.170,0.842,0.385,0.673,0.633,�k�k��,5.6,��
2020/09/22,04:10,0.669,0.950,0.608,1.172,0.842,0.384,0.670,0.632,�k�k��,4.7,��
2020/09/22,04:20,0.666,0.950,0.607,1.171,0.845,0.384,0.671,0.631,�k�k��,4.1,��
2020/09/22,04:30,0.668,0.950,0.607,1.173,0.843,0.385,0.672,0.632,�k�k��,4.5,��
2020/09/22,04:40,0.667,0.947,0.607,1.175,0.840,0.386,0.672,0.633,�k�k��,4.0,��
2020/09/22,04:50,0.669,0.950,0.608,1.173,0.842,0.386,0.672,0.631,�k��,4.1,��
2020/09/22,05:00,0.668,0.950,0.607,1.172,0.842,0.386,0.672,0.631,�k��,4.7,��
2020/09/22,05:10,0.666,0.949,0.607,1.171,0.843,0.384,0.670,0.633,�k�k��,5.3,��
2020/09/22,05:20,0.667,0.949,0.607,1.173,0.841,0.385,0.672,0.631,�k�k��,5.5,��
2020/09/22,05:30,0.669,0.949,0.606,1.169,0.841,0.385,0.672,0.633,�k�k��,5.3,��
2020/09/22,05:40,0.667,0.950,0.607,1.174,0.841,0.387,0.671,0.631,�k�k��,4.9,��
2020/09/22,05:50,0.667,0.950,0.608,1.174,0.843,0.386,0.671,0.633,�k�k��,5.0,��
2020/09/22,06:00,0.668,0.948,0.608,1.173,0.841,0.385,0.671,0.632,�k�k��,5.2,��
2020/09/22,06:10,0.666,0.951,0.609,1.170,0.845,0.386,0.671,0.633,�k�k��,5.4,��
2020/09/22,06:20,0.668,0.950,0.608,1.174,0.843,0.387,0.672,0.631,�k�k��,5.0,��
2020/09/22,06:30,0.668,0.951,0.607,1.174,0.841,0.384,0.672,0.632,�k�k��,4.8,��
2020/09/22,06:40,0.669,0.950,0.608,1.173,0.843,0.386,0.671,0.633,�k�k��,4.5,��
2020/09/22,06:50,0.668,0.950,0.608,1.175,0.841,0.386,0.672,0.633,�k��,4.8,��
2020/09/22,07:00,0.668,0.951,0.610,1.173,0.844,0.387,0.674,0.633,�k�k��,4.4,��
2020/09/22,07:10,0.670,0.952,0.609,1.174,0.841,0.386,0.673,0.632,�k�k��,4.9,��
2020/09/22,07:20,0.671,0.951,0.608,1.172,0.845,0.385,0.671,0.632,�k�k��,4.9,��
2020/09/22,07:30,0.671,0.951,0.608,1.174,0.844,0.383,0.671,0.632,�k�k��,5.0,��
2020/09/22,07:40,0.668,0.951,0.609,1.173,0.843,0.383,0.672,0.632,�k�k��,4.6,��
2020/09/22,07:50,0.673,0.951,0.608,1.175,0.842,0.382,0.671,0.632,�k�k��,4.8,��
2020/09/22,08:00,0.669,0.951,0.611,1.175,0.841,0.383,0.672,0.633,�k�k��,5.3,��
2020/09/22,08:10,0.670,0.948,0.609,1.175,0.842,0.382,0.670,0.633,�k�k��,4.6,��
2020/09/22,08:20,0.670,0.949,0.609,1.175,0.843,0.384,0.670,0.632,�k�k��,4.1,��
2020/09/22,08:30,0.670,0.949,0.610,1.173,0.842,0.384,0.670,0.632,�k�k��,3.7,��
2020/09/22,08:40,0.670,0.949,0.607,1.175,0.843,0.384,0.673,0.633,�k�k��,4.3,��
2020/09/22,08:50,0.671,0.950,0.609,1.175,0.844,0.385,0.673,0.631,�k,4.8,��
2020/09/22,09:00,0.670,0.950,0.608,1.173,0.845,0.384,0.673,0.631,�k�k��,5.5,��
2020/09/22,09:10,0.667,0.949,0.608,1.174,0.842,0.384,0.672,0.631,�k,4.3,��
2020/09/22,09:20,0.669,0.950,0.606,1.177,0.842,0.385,0.672,0.629,�k�k��,4.2,��
2020/09/22,09:30,0.669,0.951,0.608,1.177,0.841,0.384,0.671,0.631,�k,4.5,��
2020/09/22,09:40,0.668,0.950,0.609,1.177,0.841,0.383,0.672,0.629,�k,4.7,��
2020/09/22,09:50,0.668,0.951,0.606,1.177,0.844,0.385,0.671,0.631,�k,5.1,��
2020/09/22,10:00,0.669,0.951,0.605,1.175,0.842,0.383,0.672,0.631,�k,5.1,��
2020/09/22,10:10,0.669,0.952,0.609,1.175,0.844,0.385,0.672,0.630,�k,4.0,��
2020/09/22,10:20,0.669,0.953,0.608,1.173,0.842,0.384,0.673,0.629,�k�k��,3.7,��
2020/09/22,10:30,0.670,0.950,0.607,1.175,0.843,0.384,0.672,0.633,�k,3.5,��
2020/09/22,10:40,0.669,0.951,0.608,1.176,0.843,0.384,0.671,0.631,�k�k��,4.2,��
2020/09/22,10:50,0.670,0.952,0.608,1.175,0.843,0.385,0.673,0.631,�k�k��,4.0,��
2020/09/22,11:00,0.670,0.950,0.607,1.175,0.845,0.385,0.672,0.632,�k�k��,3.7,��
2020/09/22,11:10,0.669,0.954,0.608,1.173,0.844,0.385,0.672,0.630,�k�k��,3.6,��
2020/09/22,11:20,0.670,0.955,0.607,1.176,0.845,0.385,0.672,0.631,�k�k��,4.3,��
2020/09/22,11:30,0.670,0.954,0.606,1.176,0.844,0.385,0.673,0.631,�k�k��,3.2,��
2020/09/22,11:40,0.669,0.953,0.609,1.176,0.845,0.385,0.673,0.632,�k,4.3,��
2020/09/22,11:50,0.668,0.955,0.610,1.175,0.847,0.385,0.673,0.632,�k�k��,3.5,��
2020/09/22,12:00,0.671,0.955,0.609,1.176,0.845,0.385,0.673,0.631,�k�k��,4.0,��
2020/09/22,12:10,0.670,0.956,0.610,1.178,0.847,0.385,0.674,0.630,�k�k��,4.4,��
2020/09/22,12:20,0.670,0.954,0.609,1.176,0.847,0.384,0.673,0.632,�k�k��,4.4,��
2020/09/22,12:30,0.670,0.956,0.609,1.175,0.847,0.385,0.672,0.635,�k�k��,4.7,��
2020/09/22,12:40,0.668,0.956,0.610,1.175,0.848,0.385,0.673,0.631,�k�k��,5.0,��
2020/09/22,12:50,0.670,0.955,0.610,1.176,0.847,0.386,0.673,0.631,�k�k��,5.4,��
2020/09/22,13:00,0.670,0.956,0.609,1.179,0.847,0.385,0.673,0.633,�k�k��,5.0,��
2020/09/22,13:10,0.670,0.959,0.610,1.178,0.847,0.386,0.672,0.632,�k�k��,5.4,��
2020/09/22,13:20,0.670,0.957,0.608,1.176,0.847,0.384,0.673,0.633,�k�k��,4.7,��
2020/09/22,13:30,0.669,0.957,0.608,1.178,0.848,0.384,0.672,0.631,�k��,5.1,��
2020/09/22,13:40,0.669,0.955,0.610,1.178,0.849,0.384,0.674,0.632,�k�k��,4.5,��
2020/09/22,13:50,0.669,0.957,0.609,1.176,0.850,0.385,0.673,0.633,�k�k��,4.4,��
2020/09/22,14:00,0.672,0.958,0.608,1.174,0.849,0.386,0.674,0.630,�k�k��,5.0,��
2020/09/22,14:10,0.668,0.955,0.609,1.178,0.850,0.385,0.674,0.631,�k�k��,4.5,��
2020/09/22,14:20,0.671,0.957,0.610,1.176,0.848,0.386,0.674,0.631,�k�k��,4.6,��
2020/09/22,14:30,0.669,0.956,0.609,1.179,0.849,0.386,0.674,0.632,�k�k��,4.3,��
2020/09/22,14:40,0.669,0.955,0.612,1.178,0.849,0.385,0.675,0.632,�k��,4.1,��
2020/09/22,14:50,0.670,0.955,0.609,1.177,0.848,0.384,0.673,0.633,�k�k��,4.5,��
2020/09/22,15:00,0.668,0.958,0.610,1.179,0.849,0.385,0.674,0.631,�k�k��,3.9,��
2020/09/22,15:10,0.669,0.956,0.610,1.178,0.850,0.385,0.673,0.632,�k�k��,3.9,��
2020/09/22,15:20,0.671,0.958,0.610,1.177,0.848,0.386,0.674,0.632,�k�k��,4.0,��
2020/09/22,15:30,0.670,0.956,0.609,1.179,0.848,0.386,0.672,0.633,�k��,3.3,��
2020/09/22,15:40,0.668,0.958,0.610,1.177,0.847,0.385,0.673,0.631,�k�k��,3.2,��
2020/09/22,15:50,0.669,0.957,0.608,1.179,0.848,0.386,0.673,0.631,�k,3.8,��
2020/09/22,16:00,0.668,0.956,0.610,1.177,0.847,0.385,0.672,0.631,�k,2.6,��
2020/09/22,16:10,0.669,0.958,0.609,1.176,0.850,0.386,0.673,0.631,�k,3.2,��
2020/09/22,16:20,0.669,0.957,0.610,1.179,0.850,0.386,0.672,0.630,�k,3.3,��
2020/09/22,16:30,0.669,0.960,0.611,1.178,0.851,0.386,0.672,0.632,�k�k��,3.2,��
2020/09/22,16:40,0.668,0.959,0.611,1.178,0.851,0.386,0.673,0.631,�k,3.5,��
2020/09/22,16:50,0.669,0.959,0.612,1.180,0.852,0.385,0.673,0.631,�k,3.5,��
2020/09/22,17:00,0.670,0.959,0.612,1.178,0.852,0.386,0.672,0.631,�k�k��,2.6,��
2020/09/22,17:10,0.668,0.959,0.613,1.180,0.849,0.386,0.673,0.634,�k,2.3,��
2020/09/22,17:20,0.672,0.960,0.611,1.177,0.852,0.386,0.674,0.633,�k,2.6,��
2020/09/22,17:30,0.671,0.960,0.612,1.179,0.852,0.386,0.674,0.635,�k,3.2,��
2020/09/22,17:40,0.671,0.961,0.613,1.180,0.851,0.387,0.674,0.634,�k,3.5,��
2020/09/22,17:50,0.673,0.959,0.612,1.180,0.854,0.388,0.674,0.635,�k,3.7,��
2020/09/22,18:00,0.670,0.963,0.612,1.181,0.852,0.387,0.673,0.634,�k,3.2,��
2020/09/22,18:10,0.669,0.960,0.612,1.179,0.851,0.386,0.675,0.634,�k,3.2,��
2020/09/22,18:20,0.670,0.963,0.614,1.178,0.852,0.385,0.673,0.634,�k�k��,3.1,��
2020/09/22,18:30,0.671,0.961,0.613,1.176,0.853,0.387,0.676,0.634,�k�k��,3.4,��
2020/09/22,18:40,0.671,0.960,0.612,1.181,0.852,0.386,0.673,0.632,�k�k��,5.0,��
2020/09/22,18:50,0.673,0.960,0.612,1.181,0.851,0.386,0.673,0.634,�k�k��,4.0,��
2020/09/22,19:00,0.671,0.960,0.613,1.180,0.852,0.386,0.673,0.634,�k�k��,5.3,��
2020/09/22,19:10,0.671,0.959,0.613,1.181,0.853,0.387,0.673,0.634,�k�k��,5.1,��
2020/09/22,19:20,0.671,0.962,0.614,1.181,0.852,0.387,0.676,0.633,�k�k��,4.2,��
2020/09/22,19:30,0.672,0.961,0.613,1.182,0.851,0.387,0.675,0.634,�k�k��,3.6,��
2020/09/22,19:40,0.672,0.960,0.612,1.179,0.851,0.388,0.672,0.637,�k��,4.1,��
2020/09/22,19:50,0.672,0.959,0.612,1.178,0.852,0.387,0.674,0.635,�k�k��,4.6,��
2020/09/22,20:00,0.672,0.960,0.612,1.180,0.851,0.386,0.673,0.635,�k�k��,4.7,��
2020/09/22,20:10,0.671,0.961,0.612,1.181,0.851,0.387,0.675,0.635,�k�k��,4.8,��
2020/09/22,20:20,0.671,0.962,0.611,1.180,0.851,0.386,0.673,0.633,�k�k��,5.3,��
2020/09/22,20:30,0.671,0.961,0.612,1.180,0.853,0.386,0.674,0.634,�k,4.3,��
2020/09/22,20:40,0.672,0.960,0.612,1.182,0.852,0.387,0.673,0.634,�k�k��,4.6,��
2020/09/22,20:50,0.674,0.958,0.613,1.179,0.851,0.386,0.674,0.635,�k�k��,4.0,��
2020/09/22,21:00,0.673,0.962,0.613,1.179,0.849,0.387,0.673,0.635,�k�k��,3.6,��
2020/09/22,21:10,0.672,0.962,0.614,1.182,0.849,0.386,0.673,0.634,�k�k��,4.2,��
2020/09/22,21:20,0.671,0.960,0.612,1.183,0.852,0.386,0.674,0.635,�k�k��,3.4,��
2020/09/22,21:30,0.671,0.960,0.612,1.180,0.849,0.386,0.672,0.634,�k�k��,3.5,��
2020/09/22,21:40,0.673,0.961,0.614,1.181,0.851,0.386,0.672,0.637,�k�k��,4.1,��
2020/09/22,21:50,0.673,0.958,0.613,1.180,0.852,0.387,0.673,0.635,�k�k��,4.0,��
2020/09/22,22:00,0.671,0.959,0.615,1.179,0.851,0.385,0.674,0.635,�k�k��,4.0,��
2020/09/22,22:10,0.674,0.961,0.611,1.181,0.850,0.387,0.674,0.634,�k�k��,4.3,��
2020/09/22,22:20,0.672,0.960,0.613,1.179,0.852,0.385,0.673,0.634,�k��,4.8,��
2020/09/22,22:30,0.670,0.960,0.613,1.181,0.852,0.386,0.675,0.635,�k�k��,5.2,��
2020/09/22,22:40,0.672,0.961,0.613,1.181,0.851,0.386,0.673,0.634,�k�k��,6.1,��
2020/09/22,22:50,0.672,0.961,0.613,1.179,0.851,0.385,0.674,0.635,�k�k��,5.0,��
2020/09/22,23:00,0.672,0.961,0.612,1.182,0.852,0.387,0.673,0.636,�k�k��,5.2,��
2020/09/22,23:10,0.672,0.959,0.614,1.181,0.852,0.388,0.674,0.636,�k�k��,5.9,��
2020/09/22,23:20,0.672,0.961,0.612,1.182,0.853,0.385,0.675,0.634,�k�k��,6.4,��
2020/09/22,23:30,0.673,0.961,0.614,1.181,0.852,0.386,0.674,0.634,�k�k��,5.3,��
2020/09/22,23:40,0.672,0.961,0.612,1.181,0.852,0.386,0.673,0.634,�k�k��,5.1,��
2020/09/22,23:50,0.672,0.961,0.613,1.182,0.853,0.387,0.672,0.636,�k�k��,5.6,��
